This demonstration page uses our WeatherBlox Daily Observations layout. Learn more.

Left ArrowRight Arrow

34.16533, -84.80231

Hourly Observations for March 29, 2022

Temp ( °F °C ) Dew Point ( °F °C ) Humidity (%) Winds ( mph kmh ) Pressure ( in mb ) Visibility ( mi km ) Precip ( " mm )
12:15 am 00:15 Cloudy 45 7 36 2 71 71 Calm 30.17 1022 10 16 0.00 0.00
12:35 am 00:35 Cloudy 45 7 34 1 66 66 Calm 30.17 1022 10 16 0.00 0.00
12:55 am 00:55 Cloudy 45 7 34 1 66 66 Calm 30.17 1022 10 16 0.00 0.00
1:15 am 01:15 Cloudy 45 7 34 1 66 66 Calm 30.17 1022 10 16 0.00 0.00
1:35 am 01:35 Cloudy 43 6 34 1 71 71 Calm 30.17 1022 10 16 0.00 0.00
1:55 am 01:55 Cloudy 43 6 36 2 76 76 Calm 30.16 1021 10 16 0.00 0.00
2:15 am 02:15 Cloudy 43 6 37 3 81 81 Calm 30.16 1021 10 16 0.00 0.00
2:35 am 02:35 Cloudy 43 6 37 3 81 81 Calm 30.16 1021 10 16 0.00 0.00
2:55 am 02:55 Cloudy 43 6 36 2 76 76 Calm 30.15 1021 10 16 0.00 0.00
3:15 am 03:15 Cloudy 43 6 37 3 81 81 Calm 30.15 1021 10 16 0.00 0.00
3:35 am 03:35 Cloudy 43 6 37 3 81 81 Calm 30.15 1021 10 16 0.00 0.00
3:55 am 03:55 Cloudy 43 6 39 4 87 87 Calm 30.15 1021 10 16 0.00 0.00
4:15 am 04:15 Cloudy 43 6 39 4 87 87 Calm 30.14 1021 10 16 0.00 0.00
4:35 am 04:35 Cloudy 43 6 39 4 87 87 Calm 30.14 1021 10 16 0.00 0.00
4:55 am 04:55 Cloudy 43 6 39 4 87 87 Calm 30.15 1021 10 16 0.00 0.00
5:15 am 05:15 Cloudy 43 6 39 4 87 87 Calm 30.16 1021 10 16 0.00 0.00
5:35 am 05:35 Cloudy 45 7 39 4 81 81 Calm 30.17 1022 10 16 0.00 0.00
5:55 am 05:55 Cloudy 45 7 39 4 81 81 Calm 30.18 1022 10 16 0.00 0.00
6:15 am 06:15 Cloudy 45 7 39 4 81 81 Calm 30.18 1022 10 16 0.00 0.00
6:35 am 06:35 Cloudy 45 7 39 4 81 81 Calm 30.19 1022 10 16 0.00 0.00
6:55 am 06:55 Cloudy 45 7 39 4 81 81 Calm 30.20 1023 10 16 0.00 0.00
7:15 am 07:15 Cloudy 45 7 41 5 87 87 Calm 30.21 1023 10 16 0.00 0.00
7:35 am 07:35 Cloudy 45 7 39 4 81 81 Calm 30.22 1023 10 16 0.00 0.00
7:55 am 07:55 Cloudy 45 7 39 4 81 81 Calm 30.22 1023 10 16 0.00 0.00
8:15 am 08:15 Cloudy 46 8 39 4 76 76 Calm 30.23 1024 10 16 0.00 0.00
8:35 am 08:35 Cloudy 46 8 39 4 76 76 Calm 30.23 1024 10 16 0.00 0.00
8:55 am 08:55 Mostly Cloudy 48 9 37 3 66 66 E 3 6 30.22 1023 10 16 0.00 0.00
9:15 am 09:15 Partly Cloudy 48 9 39 4 71 71 ENE 3 6 30.23 1024 10 16 0.00 0.00
9:35 am 09:35 Mostly Sunny 52 11 41 5 67 67 E 5 7 30.23 1024 10 16 0.00 0.00
9:55 am 09:55 Mostly Sunny 55 13 34 1 44 44 E 9 15 30.21 1023 10 16 0.00 0.00
10:15 am 10:15 Partly Cloudy 57 14 34 1 41 41 E 10 17 30.22 1023 10 16 0.00 0.00
10:35 am 10:35 Mostly Sunny 57 14 32 0 39 39 E 10 17 30.22 1023 10 16 0.00 0.00
10:55 am 10:55 Sunny 59 15 32 0 36 36 E 9 15 30.22 1023 10 16 0.00 0.00
11:15 am 11:15 Sunny 61 16 30 -1 31 31 E 8 13 30.20 1023 10 16 0.00 0.00
11:35 am 11:35 Sunny 63 17 28 -2 27 27 E 8 13 30.19 1022 10 16 0.00 0.00
11:55 am 11:55 Sunny 64 18 30 -1 28 28 SE 8 13 30.19 1022 10 16 0.00 0.00
12:15 pm 12:15 Sunny 66 19 30 -1 26 26 ESE 6 9 30.17 1022 10 16 0.00 0.00
12:35 pm 12:35 Sunny 68 20 30 -1 24 24 VRB 6 9 30.16 1021 10 16 0.00 0.00
12:55 pm 12:55 Sunny 70 21 32 0 25 25 SE 10 17 30.15 1021 10 16 0.00 0.00
1:15 pm 13:15 Sunny 70 21 34 1 27 27 VRB 7 11 30.14 1021 10 16 0.00 0.00
1:35 pm 13:35 Sunny 70 21 34 1 27 27 SSW 8 13 30.14 1021 10 16 0.00 0.00
1:55 pm 13:55 Sunny 72 22 36 2 27 27 SE 10 17 30.12 1020 10 16 0.00 0.00
2:15 pm 14:15 Sunny 70 21 36 2 29 29 Calm 30.11 1020 10 16 0.00 0.00
2:35 pm 14:35 Sunny 73 23 37 3 27 27 VRB 7 11 30.10 1019 10 16 0.00 0.00
2:55 pm 14:55 Sunny 73 23 37 3 27 27 VRB 6 9 30.09 1019 10 16 0.00 0.00
3:15 pm 15:15 Mostly Sunny 75 24 37 3 25 25 SE 6 9 30.07 1018 10 16 0.00 0.00
3:35 pm 15:35 Mostly Sunny 75 24 39 4 27 27 VRB 5 7 30.07 1018 10 16 0.00 0.00
3:55 pm 15:55 Mostly Sunny 77 25 41 5 28 28 VRB 3 6 30.06 1018 10 16 0.00 0.00
4:15 pm 16:15 Sunny 77 25 43 6 30 30 SSE 8 13 30.05 1018 10 16 0.00 0.00
4:35 pm 16:35 Sunny 77 25 43 6 30 30 SSE 9 15 30.04 1017 10 16 0.00 0.00
4:55 pm 16:55 Sunny 77 25 45 7 32 32 VRB 5 7 30.03 1017 10 16 0.00 0.00
5:15 pm 17:15 Sunny 77 25 43 6 30 30 SSE 6 9 30.02 1017 10 16 0.00 0.00
5:35 pm 17:35 Sunny 77 25 45 7 32 32 SSW 10 17 30.02 1017 10 16 0.00 0.00
5:55 pm 17:55 Sunny 77 25 45 7 32 32 VRB 6 9 30.01 1016 10 16 0.00 0.00
6:15 pm 18:15 Sunny 77 25 45 7 32 32 SSE 12 19 30.01 1016 10 16 0.00 0.00
6:35 pm 18:35 Sunny 77 25 45 7 32 32 S 9 15 30.01 1016 10 16 0.00 0.00
6:55 pm 18:55 Sunny 75 24 45 7 34 34 SSE 7 11 30.00 1016 10 16 0.00 0.00
7:15 pm 19:15 Sunny 75 24 45 7 34 34 SSE 7 11 30.00 1016 10 16 0.00 0.00
7:35 pm 19:35 Sunny 73 23 46 8 38 38 SSE 6 9 30.01 1016 10 16 0.00 0.00
7:55 pm 19:55 Sunny 72 22 46 8 41 41 Calm 30.02 1016 10 16 0.00 0.00
8:15 pm 20:15 Clear 70 21 46 8 43 43 ESE 3 6 30.02 1017 10 16 0.00 0.00
8:35 pm 20:35 Mostly Clear 68 20 46 8 46 46 Calm 30.03 1017 10 16 0.00 0.00
8:55 pm 20:55 Mostly Clear 68 20 46 8 46 46 ESE 6 9 30.03 1017 10 16 0.00 0.00
9:15 pm 21:15 Clear 66 19 46 8 49 49 ESE 3 6 30.04 1017 10 16 0.00 0.00
9:35 pm 21:35 Partly Cloudy 64 18 48 9 56 56 ESE 5 7 30.05 1018 10 16 0.00 0.00
9:55 pm 21:55 Partly Cloudy 64 18 46 8 52 52 E 6 9 30.05 1018 10 16 0.00 0.00
10:15 pm 22:15 Mostly Cloudy 64 18 46 8 52 52 ESE 6 9 30.05 1018 10 16 0.00 0.00
10:35 pm 22:35 Cloudy 64 18 45 7 49 49 ESE 7 11 30.05 1018 10 16 0.00 0.00
10:55 pm 22:55 Cloudy 66 19 43 6 43 43 ESE 7 11 30.04 1017 10 16 0.00 0.00
11:15 pm 23:15 Cloudy 64 18 43 6 46 46 ESE 6 9 30.04 1017 10 16 0.00 0.00
11:35 pm 23:35 Cloudy 64 18 43 6 46 46 ESE 7 11 30.04 1017 10 16 0.00 0.00
11:55 pm 23:55 Cloudy 64 18 43 6 46 46 ESE 10 17 30.04 1017 10 16 0.00 0.00

Powered by AerisWeather